Weather Roundup
Issued by NWS Corpus Christi, TX

Home | Current Version | Previous Version | Text Only | Print | Product List | Glossary On
Versions: 1 2 3 4 5 6 7 8 9 10 11 12 13 14 15 16 17 18 19 20 21 22 23 24 25 26 27 28 29 30 31 32 33 34 35 36 37 38 39 40 41 42 43 44 45 46 47 48 49 50
000
ASUS44 KCRP 270210
HRRCRP

SOUTH TEXAS REGIONAL WEATHER ROUNDUP
NATIONAL WEATHER SERVICE CORPUS CHRISTI TX
800 PM CST FRI DEC 26 2014


TXZ229>244-270300-
...CORPUS CHRISTI AREA OBSERVATIONS...

CITY           SKY/WX    TMP DP  RH WIND       PRES   REMARKS
CORPUS CHRISTI PTCLDY    67  64  90 S15       29.92R
NAS CORPUS CHR MOCLDY    67  67 100 S12       29.93R
ROCKPORT       MOCLDY    69  66  90 S9        29.94R
KINGSVILLE NAS CLEAR     67  65  93 SE7       29.91R
ALICE          CLEAR     64  61  90 SE6       29.91R
FALFURRIAS     CLEAR     69  61  75 SE7       29.89R
$$

...VICTORIA AREA OBSERVATIONS...

CITY           SKY/WX    TMP DP  RH WIND       PRES   REMARKS
VICTORIA       CLOUDY    67  66  97 SE7       29.95R FOG
BEEVILLE       FAIR      64  64  99 SE8       29.92R
PLEASANTON     CLEAR     64  58  82 E5        29.90S
SAN ANTONIO    PTCLDY    62  58  86 CALM      29.92R
$$

...LAREDO AREA OBSERVATIONS...

CITY           SKY/WX    TMP DP  RH WIND       PRES   REMARKS
LAREDO         CLEAR     63  54  72 SE3       29.91R
DEL RIO        MOCLDY    60  46  59 CALM      29.87R
MCALLEN        CLEAR     68  62  81 SE12      29.90R
HEBBRONVILLE   CLEAR     65  60  82 SE7       29.91R HAZE
$$

...OTHER TEXAS OBSERVATIONS...

CITY           SKY/WX    TMP DP  RH WIND       PRES   REMARKS
BROWNSVILLE    PTCLDY    68  65  90 S10       29.92R
HOUSTON        CLOUDY    67  63  87 SE9       29.98R
COL. STATION   CLOUDY    65  64  97 SE7       29.96R
AUSTIN         MOCLDY    56  54  93 CALM      29.93R
WACO           MOCLDY    60  59  96 S7        29.93R
FORT WORTH     MOCLDY    62  60  93 E7        29.93R
WICHITA FALLS  PTCLDY    49  40  71 N18       29.96R
LUBBOCK        CLOUDY    42  30  62 N15       29.99R
EL PASO        LGT RAIN  37  34  89 S12       29.99R WCI  29
$$

...MARINE OBSERVATIONS...

STATION/POSITION TIME  SKY/WX   TEMP    WIND        PRES    VSBY  WAVE   SWELL
                                AIR SEA DIR/SP/G                  HT/PER HT/PER
                 (UTC)          (F)     (DEG/KT/KT) (MB)    (MI)  (FT/S) (FT/S)
PORT ARANSAS     0200            67 62  150/ 10/ 10 1014.1R
BUOY 90 E PORT A 0200            73 72  150/ 17/ 21 1014.5R         7/ 8
BUOY 45 SE BAFFI 0200            73 72  170/ 16/ 19 1013.0R         6/ 8   5/ 8
BUOY 200 E PT IS 0200            74 74  140/ 16/ 17 1015.8R         4/ 6
BUOY 15 E GALVES 0200            64 61  120/ 10/ 10 1015.7R         5/ 7   5/ 7
$$


USA.gov is the U.S. government's official web portal to all federal, state and local government web resources and services.